Regional Weather Roundup
Issued by NWS Green Bay, WI

Home | Current Version | Previous Version | Graphics & Text | Print | Product List | Glossary Off
Versions: 1 2 3 4 5 6 7 8 9 10 11 12 13 14 15 16 17 18 19 20 21 22 23 24 25 26 27 28 29 30 31 32 33 34 35 36 37 38 39 40 41 42 43 44 45 46 47 48 49 50

000
ASUS43 KGRB 291900
RWRGRB

NORTH-CENTRAL AND NORTHEAST WISCONSIN REGIONAL WEATHER ROUNDUP
NATIONAL WEATHER SERVICE GREEN BAY WI
200 PM CDT FRI APR 29 2016

WIZ005-009-010>012-018-019-292000-
NORTH CENTRAL WISCONSIN

CITY           SKY/WX    TMP DP  RH WIND       PRES   REMARKS
IRONWOOD         N/A     48  34  57 N12       30.15R
MANITOWISH WTR NOT AVBL
ARBOR VITAE    NOT AVBL
EAGLE RIVER    NOT AVBL
LAND O LAKES   NOT AVBL
RHINELANDER    PTSUNNY   54  33  45 NE8       30.13S
PHILLIPS       MOSUNNY   55  33  43 E6        30.11F
ANTIGO         NOT AVBL
TOMAHAWK       NOT AVBL
MERRILL        NOT AVBL
$$

WIZ013-073-292000-
NORTHEAST WISCONSIN

CITY           SKY/WX    TMP DP  RH WIND       PRES   REMARKS
IRON MOUNTAIN  CLOUDY    57  23  26 N6        30.12R
MARINETTE      CLOUDY    48  25  40 E6        30.17R
$$

WIZ017-030-035>037-045-292000-
CENTRAL WISCONSIN

CITY           SKY/WX    TMP DP  RH WIND       PRES   REMARKS
MEDFORD        NOT AVBL
WAUSAU         PTSUNNY   56  35  45 E9        30.10F
MOSINEE        CLOUDY    54  36  50 VRB6      30.13F
MARSHFIELD     CLOUDY    52  37  56 NE6       30.12S
WISC RAPIDS    CLOUDY    53  33  46 SE3       30.14S
STEVENS POINT  NOT AVBL
WAUPACA        CLOUDY    56  32  40 NE7       30.15R
SHAWANO        CLOUDY    55  34  45 E9        30.14S
CLINTONVILLE   NOT AVBL
WAUTOMA        CLOUDY    53  34  48 E7        30.14
$$

WIZ038-039-048-051-292000-
FOX VALLEY

CITY           SKY/WX    TMP DP  RH WIND       PRES   REMARKS
NWS GREEN BAY  CLOUDY    54  33  45 NE12G20   30.15R
APPLETON       PTSUNNY   52  28  40 NE7       30.13R
OSHKOSH        CLOUDY    52  33  48 NE7       30.14R
FOND DU LAC    CLOUDY    51  36  56 CALM      30.13S
$$

WIZ022-050-052-292000-
EAST CENTRAL WISCONSIN

CITY           SKY/WX    TMP DP  RH WIND       PRES   REMARKS
EPHRAIM        NOT AVBL
STURGEON BAY   CLOUDY    50  28  43 NW7       30.19R
MANITOWOC      NOT AVBL
SHEBOYGAN      CLOUDY    50  33  52 NE9       30.15R
$$

LMZ563-521-522-541>543-292000-
LAKESHORE

STATION/POSITION TIME  TEMP    WIND        PRES    VSBY  WAVE
                       AIR SEA DIR/SP/G                  HT/PER
                 (UTC) (F)     (DEG/KT/KT) (MB)    (MI)  (FT/S)
SHEBOYGAN LKSHOR 1800   41      10/  3/  4 1021.4R
KEWAUNEE LKSHORE 1800   43      30/  6/ 10 1019.8F
NORTHPORT PIER   1800   44     350/  2/  5 1020.7S
N MID LAKE BUOY  1750   39 39  330/  6/  8 1020.6F         1
CHAMBERS ISLAND  1840   46     340/  4/  6 1021.3R
MENOMINEE LKSHOR 1800   42      30/ 10/ 12 1019.6R
$$




USA.gov is the U.S. government's official web portal to all federal, state and local government web resources and services.